Location: Ústí nad Labem
(50.6611°N, 14.0531°E)
Time: 04:26:03
(UTC+02:00)

Courier 1B - All Passes

Search period start: 22 April 2024 00:00
Search period end: 02 May 2024 00:00
Orbit: 962 x 1208 km, 28.3° (Epoch: 21 April)

Date Brightness Start Highest point End Pass type
(mag) Time Alt. Az. Time Alt. Az. Time Alt. Az.
22 Apr - 04:53:24 10° S 04:53:36 10° S 04:53:49 10° S visible
23 Apr - 03:58:27 10° SSW 04:00:08 11° S 04:01:49 10° S visible
24 Apr - 03:04:36 10° SSW 03:06:38 11° S 03:08:40 10° SSE visible
25 Apr - 02:11:09 10° S 02:13:08 11° S 02:15:05 10° SSE visible
25 Apr - 04:04:59 10° SSW 04:05:39 10° S 04:06:19 10° S visible
26 Apr - 01:18:17 10° S 01:19:37 10° S 01:20:56 10° SSE night (unlit)
26 Apr - 03:10:02 10° SSW 03:12:10 11° S 03:14:16 10° S visible
27 Apr - 02:16:01 10° SSW 02:18:39 12° S 02:21:14 10° SSE visible
28 Apr - 01:22:21 10° SSW 01:25:06 12° S 01:27:50 10° SSE night (unlit)
29 Apr - 00:29:04 10° SSW 00:31:33 12° S 00:34:02 10° SSE night (unlit)
29 Apr - 02:21:56 10° SSW 02:24:08 11° S 02:26:19 10° S night (unlit)
29 Apr - 23:36:18 10° S 23:38:00 11° SSE 23:39:41 10° SSE night (unlit)
30 Apr - 01:27:46 10° SSW 01:30:36 12° S 01:33:25 10° SSE night (unlit)
01 May - 00:33:58 10° SSW 00:37:02 13° S 00:40:05 10° SSE night (unlit)
01 May - 23:40:31 10° SSW 23:43:28 12° S 23:46:25 10° SSE visible
